Watonga, OK

12:02 AM CDT on July 26, 2017 (GMT -0500)
Watonga

Weather History for KJWG - March, 2013

Change the Weather History Date:

Thursday, March 21, 2013

  Actual Average Record
Temperature  
Mean Temperature 50 °F -  
Max Temperature 63 °F 64 °F 82 °F (1966)
Min Temperature 39 °F 37 °F 11 °F (1974)
Degree Days  
Heating Degree Days 14    
Moisture  
Dew Point 37 °F    
Average Humidity 64    
Maximum Humidity 87    
Minimum Humidity 47    
Precipitation  
Precipitation 0.00 in - - ()
Sea Level Pressure  
Sea Level Pressure 29.72 in    
Wind  
Wind Speed 12 mph (SE)    
Max Wind Speed 23 mph    
Max Gust Speed 29 mph    
Visibility 10 miles    
Events      
Averages and records for this station are not official NWS values.
T = Trace of Precipitation, MM = Missing Value Source: NWS Daily Summary

Daily Weather History Graph

Daily Weather History Graph

Search for Another Location

Airport or City:

Trip Planner

Search our weather history database for the weather conditions in past years. The results will help you decide how hot, cold, wet, or windy it might be!

Date:

Astronomy

Mar. 21, 2013 Rise Set
Actual Time 7:35 AM CDT 7:46 PM CDT
Civil Twilight 7:09 AM CDT 8:12 PM CDT
Nautical Twilight 6:40 AM CDT 8:41 PM CDT
Astronomical Twilight 6:09 AM CDT 9:12 PM CDT
Moon 2:26 PM CDT (3/21) 3:48 AM CDT (3/21)
Length of Visible Light 13h 02m
Length of Day
12h 11m
Waxing Gibbous, 69% of the Moon is Illuminated
Mar 21
Waxing Gibbous
Mar 27
Full
Apr 2
Last Quarter
Apr 10
New
Apr 18
First Quarter

Hourly Weather History & Observations

Time (CDT) Temp. Windchill Dew Point Humidity Pressure Visibility Wind Dir Wind Speed Gust Speed Precip Events Conditions
12:15 AM 46.4 °F 42.4 °F 32.7 °F 59% 29.98 in 10.0 mi SE 8.1 mph - N/A   Clear
12:35 AM 46.0 °F 41.0 °F 33.6 °F 62% 29.97 in 10.0 mi SE 10.4 mph - N/A   Clear
12:55 AM 45.5 °F 39.6 °F 33.8 °F 64% 29.96 in 10.0 mi SE 12.7 mph 19.6 mph N/A   Clear
1:35 AM 45.5 °F 39.6 °F 34.0 °F 64% 29.93 in 10.0 mi SE 12.7 mph 20.7 mph N/A   Clear
1:55 AM 45.5 °F 39.6 °F 33.8 °F 64% 29.92 in 10.0 mi SE 12.7 mph - N/A   Clear
2:15 AM 44.6 °F 38.8 °F 33.8 °F 66% 29.91 in 10.0 mi SE 11.5 mph - N/A   Clear
2:35 AM 44.2 °F 39.2 °F 33.4 °F 66% 29.91 in 10.0 mi SE 9.2 mph - N/A   Clear
2:55 AM 43.3 °F 38.1 °F 33.3 °F 68% 29.90 in 10.0 mi SE 9.2 mph - N/A   Clear
3:15 AM 43.3 °F 37.7 °F 33.4 °F 68% 29.89 in 10.0 mi SE 10.4 mph - N/A   Clear
3:55 AM 42.8 °F 37.0 °F 33.8 °F 70% 29.87 in 10.0 mi SE 10.4 mph - N/A   Clear
4:15 AM 42.4 °F 36.5 °F 33.8 °F 71% 29.86 in 10.0 mi SE 10.4 mph - N/A   Clear
4:35 AM 42.1 °F 36.6 °F 33.8 °F 72% 29.85 in 10.0 mi SE 9.2 mph - N/A   Clear
4:55 AM 41.9 °F 36.9 °F 33.8 °F 73% 29.84 in 10.0 mi SE 8.1 mph - N/A   Clear
5:15 AM 41.4 °F 35.7 °F 33.4 °F 73% 29.83 in 10.0 mi SE 9.2 mph - N/A   Clear
5:35 AM 41.5 °F 36.4 °F 33.1 °F 72% 29.81 in 10.0 mi SE 8.1 mph - N/A   Clear
6:15 AM 41.9 °F 36.3 °F 32.9 °F 70% 29.80 in 10.0 mi SE 9.2 mph - N/A   Clear
6:35 AM 41.9 °F 35.9 °F 32.5 °F 69% 29.79 in 10.0 mi SE 10.4 mph - N/A   Clear
6:55 AM 42.4 °F 36.1 °F 32.5 °F 68% 29.79 in 10.0 mi SE 11.5 mph - N/A   Clear
7:15 AM 43.0 °F 36.8 °F 32.5 °F 67% 29.79 in 10.0 mi SE 11.5 mph 17.3 mph N/A   Clear
7:35 AM 43.2 °F 37.0 °F 32.9 °F 67% 29.78 in 10.0 mi SSE 11.5 mph - N/A   Clear
7:55 AM 43.2 °F 36.6 °F 33.1 °F 68% 29.77 in 10.0 mi SSE 12.7 mph 16.1 mph N/A   Clear
8:15 AM 43.7 °F 37.7 °F 33.3 °F 67% 29.78 in 10.0 mi SSE 11.5 mph - N/A   Clear
8:35 AM 43.7 °F 37.7 °F 33.6 °F 68% 29.77 in 10.0 mi SSE 11.5 mph - N/A   Clear
8:55 AM 44.4 °F 39.0 °F 34.0 °F 67% 29.77 in 10.0 mi SSE 10.4 mph - N/A   Mostly Cloudy
9:15 AM 45.1 °F 39.5 °F 34.7 °F 67% 29.76 in 10.0 mi SE 11.5 mph - N/A   Overcast
9:35 AM 46.0 °F 39.9 °F 34.7 °F 65% 29.75 in 10.0 mi SE 13.8 mph 18.4 mph N/A   Mostly Cloudy
9:55 AM 47.3 °F - 34.9 °F 62% 29.74 in 10.0 mi SSE 15.0 mph - N/A   Mostly Cloudy
10:15 AM 47.7 °F - 34.3 °F 60% 29.73 in 10.0 mi SSE 15.0 mph 19.6 mph N/A   Overcast
10:35 AM 49.1 °F - 34.7 °F 58% 29.72 in 10.0 mi SSE 13.8 mph 19.6 mph N/A   Overcast
10:55 AM 50.0 °F - 34.3 °F 55% 29.72 in 10.0 mi SSE 10.4 mph - N/A   Overcast
11:15 AM 50.9 °F - 34.0 °F 52% 29.71 in 10.0 mi SSE 15.0 mph - N/A   Overcast
11:35 AM 52.2 °F - 34.3 °F 51% 29.69 in 10.0 mi SSE 16.1 mph 21.9 mph N/A   Overcast
11:55 AM 53.1 °F - 34.7 °F 50% 29.68 in 10.0 mi SSE 15.0 mph 23.0 mph N/A   Overcast
12:15 PM 53.8 °F - 35.2 °F 50% 29.68 in 10.0 mi SSE 13.8 mph 25.3 mph N/A   Overcast
12:35 PM 54.5 °F - 35.8 °F 49% 29.67 in 10.0 mi SSE 18.4 mph 25.3 mph N/A   Overcast
12:55 PM 55.4 °F - 36.0 °F 48% 29.66 in 10.0 mi SSE 18.4 mph 25.3 mph N/A   Overcast
1:15 PM 55.6 °F - 36.0 °F 48% 29.65 in 10.0 mi SSE 17.3 mph 26.5 mph N/A   Overcast
1:35 PM 56.5 °F - 36.3 °F 47% 29.64 in 10.0 mi SSE 13.8 mph - N/A   Overcast
2:15 PM 58.3 °F - 37.9 °F 47% 29.62 in 10.0 mi SSE 18.4 mph 23.0 mph N/A   Overcast
2:35 PM 59.2 °F - 39.0 °F 47% 29.62 in 10.0 mi South 12.7 mph 20.7 mph N/A   Mostly Cloudy
3:15 PM 60.4 °F - 40.3 °F 47% 29.60 in 10.0 mi South 13.8 mph 21.9 mph N/A   Scattered Clouds
3:35 PM 61.3 °F - 41.5 °F 48% 29.59 in 10.0 mi SSE 15.0 mph 21.9 mph N/A   Scattered Clouds
3:55 PM 62.1 °F - 42.1 °F 48% 29.58 in 10.0 mi SSE 13.8 mph 21.9 mph N/A   Clear
4:15 PM 62.4 °F - 42.4 °F 48% 29.57 in 10.0 mi South 12.7 mph - N/A   Clear
4:35 PM 61.3 °F - 42.4 °F 50% 29.56 in 10.0 mi SSE 13.8 mph 23.0 mph N/A   Clear
4:55 PM 61.5 °F - 43.2 °F 51% 29.56 in 10.0 mi ESE 17.3 mph 21.9 mph N/A   Clear
5:15 PM 59.5 °F - 43.7 °F 56% 29.56 in 10.0 mi ESE 13.8 mph - N/A   Clear
5:35 PM 60.3 °F - 44.8 °F 57% 29.57 in 10.0 mi ESE 16.1 mph 19.6 mph N/A   Clear
5:55 PM 60.1 °F - 44.8 °F 57% 29.56 in 10.0 mi ESE 11.5 mph - N/A   Clear
6:15 PM 59.9 °F - 45.5 °F 59% 29.57 in 10.0 mi East 13.8 mph 19.6 mph N/A   Clear
6:35 PM 58.1 °F - 45.3 °F 62% 29.58 in 10.0 mi East 17.3 mph 23.0 mph N/A   Clear
6:55 PM 56.8 °F - 44.8 °F 64% 29.59 in 10.0 mi East 16.1 mph - N/A   Clear
7:15 PM 55.9 °F - 44.4 °F 65% 29.60 in 10.0 mi East 15.0 mph - N/A   Clear
7:35 PM 50.7 °F - 40.6 °F 68% 29.61 in 10.0 mi ENE 19.6 mph 24.2 mph N/A   Clear
7:55 PM 48.4 °F - 39.7 °F 72% 29.62 in 10.0 mi NE 18.4 mph 23.0 mph N/A   Clear
8:15 PM 46.4 °F 38.7 °F 38.5 °F 74% 29.63 in 10.0 mi NE 20.7 mph - N/A   Clear
8:35 PM 45.5 °F 38.6 °F 38.3 °F 76% 29.64 in 10.0 mi NE 16.1 mph - N/A   Clear
8:55 PM 44.2 °F 36.2 °F 37.4 °F 77% 29.65 in 10.0 mi ENE 19.6 mph 25.3 mph N/A   Clear
9:15 PM 42.4 °F 33.1 °F 36.5 °F 79% 29.65 in 10.0 mi ENE 23.0 mph 28.8 mph N/A   Clear
9:35 PM 41.5 °F 33.2 °F 36.1 °F 81% 29.66 in 10.0 mi ENE 17.3 mph 25.3 mph N/A   Clear
9:55 PM 40.5 °F 31.2 °F 35.6 °F 83% 29.67 in 10.0 mi ENE 19.6 mph - N/A   Clear
10:15 PM 40.1 °F 31.0 °F 35.6 °F 84% 29.66 in 10.0 mi East 18.4 mph 23.0 mph N/A   Clear
10:35 PM 39.2 °F 30.8 °F 35.6 °F 87% 29.68 in 10.0 mi ENE 15.0 mph 19.6 mph N/A   Clear
10:55 PM 39.9 °F 31.1 °F 35.6 °F 85% 29.68 in 10.0 mi East 17.3 mph 23.0 mph N/A   Mostly Cloudy
11:15 PM 40.1 °F 31.0 °F 35.6 °F 84% 29.68 in 10.0 mi East 18.4 mph 25.3 mph N/A   Overcast
11:35 PM 40.1 °F 32.4 °F 35.4 °F 83% 29.70 in 10.0 mi ENE 13.8 mph 18.4 mph N/A   Overcast
11:55 PM 39.7 °F 30.9 °F 35.1 °F 83% 29.71 in 10.0 mi ENE 17.3 mph 21.9 mph N/A   Overcast